User: anonymous   Login
Location: Unspecified
(0.0000°N, 0.0000°E)
Time: 01:13:52
(UTC+00:00)
Language:

VELOX 2 - Orbit

View from above orbital plane
View from above orbital plane
View from above satellite
View from above satellite

Ground track
Ground track

The orbit data is extracted from the following two-line orbital elements,

1 41171U 15077F   18200.19941760  .00001279  00000-0  36016-4 0  9991
2 41171  14.9905 163.1251 0008946  84.5186 275.6154 15.10703560143086
Epoch (UTC): 19 July 2018 04:47:09
Eccentricity: 0.0008946
inclination: 14.9905°
perigee height: 528 km
apogee height: 540 km
right ascension of ascending node: 163.1251°
argument of perigee: 84.5186°
revolutions per day: 15.10703560
mean anomaly at epoch: 275.6154°
orbit number at epoch: 14308

The dashed part of the orbit path shows where the satellite is in the earth's shadow,  

DLR